Flag for Argentina Weather past 2 weeks in Mendoza, Mendoza, Argentina

Now
77 °F

Sunny.


Feels Like: 78 °F
Forecast: 65 / 87 °F
Wind: 6 mph from South

Location: Mendoza Aerodrome

Current Time: Oct 22, 2014 at 9:45:29 AM

Latest Report: Oct 22, 2014 at 9:00 AM


Visibility: 10 mi

Pressure: 29.95 "Hg

Humidity: 44%

Dew point: 54 °F

Location of MendozaLocation

Historic Weather in Mendoza — Graph

°F

Mendoza temperature yesterday

Maximum temperature yesterday: 93 °F (at 5:00 PM)
Minimum temperature yesterday: 61 °F (at 7:00 AM)
Average temperature yesterday: 77 °F

Past Weeks' High & Low Weather Summary

 TemperatureHumidityPressure
High95 °F (Oct 17, 4:00 PM)77% (Oct 7, 8:00 AM)30.21 "Hg (Oct 7, 8:00 AM)
Low46 °F (Oct 11, 4:00 AM)1% (Oct 17, 6:00 PM)29.56 "Hg (Oct 17, 4:00 PM)
Average69 °F35%29.92 "Hg
* Reported Oct 7 8:00 AM — Oct 22 8:00 AM, Mendoza, Weather by CustomWeather, © 2014

Note: Actual official high and low records may vary slightly from our data, if they occured in-between our weather recording intervals... More about our weather records

Advertising

Mendoza weather history for previous 24 hours

 ConditionsComfort  
Time TempWeatherWind HumidityBarometerVisibility
8:00 AM
Oct 22
73 °FSunny.5 mph50%29.92 "Hg10 mi
7:00 AM72 °FSunny.5 mph57%29.89 "Hg10 mi
6:00 AM72 °FSunny.5 mph53%29.86 "Hg10 mi
5:00 AM72 °FClear.3 mph57%29.83 "Hg10 mi
4:00 AM72 °FClear.3 mph57%29.83 "Hg10 mi
3:00 AM73 °FClear.3 mph57%29.83 "Hg10 mi
2:00 AM72 °FClear.2 mph57%29.86 "Hg10 mi
1:00 AM73 °FClear.No wind53%29.86 "Hg10 mi
12:00 AM79 °FClear.3 mph45%29.86 "Hg10 mi
11:00 PM
Oct 21
79 °FClear.No wind42%29.86 "Hg10 mi
10:00 PM81 °FClear.No wind39%29.86 "Hg10 mi
9:00 PM82 °FClear.2 mph40%29.83 "Hg10 mi
8:00 PM86 °FClear.3 mph27%29.80 "Hg10 mi
7:00 PM91 °FClear.9 mph18%29.77 "Hg10 mi
6:00 PM91 °FSunny.14 mph17%29.77 "Hg10 mi
5:00 PM93 °FSunny.14 mph19%29.77 "Hg10 mi
4:00 PM91 °FSunny.13 mph20%29.80 "Hg10 mi
3:00 PM91 °FSunny.10 mph21%29.83 "Hg10 mi
2:00 PM88 °FSunny.8 mph29%29.89 "Hg10 mi
1:00 PM84 °FSunny.5 mph35%29.92 "Hg10 mi
12:00 PM79 °FSunny.5 mph42%29.95 "Hg10 mi
11:00 AM77 °FSunny.5 mph44%29.95 "Hg10 mi
10:00 AM75 °FSunny.3 mph47%29.98 "Hg10 mi
9:00 AM72 °FSunny.2 mph50%29.98 "Hg10 mi
Weather by CustomWeather, © 2014

See weather overviewHow to use our weather pages